| time (UTC) | temp F | wind direction | speed MPH | gust MPH | rain 1hr in | rain 24hr in | rain mn in | humidity % | barometer mb |
| 20260507074653 | 45 | 46 | 3.0 | 7.0 | 0.00 | 0.00 | 0.00 | 46 | 1016.8 |
| 20260507073100 | 44 | 59 | 0.0 | 7.0 | 0.00 | 0.00 | 0.00 | 52 | 1016.7 |
| 20260507071652 | 43 | 78 | 1.0 | 5.0 | 0.00 | 0.00 | 0.00 | 56 | 1016.7 |
| 20260507070053 | 43 | 42 | 2.0 | 5.0 | 0.00 | 0.00 | 0.00 | 55 | 1016.6 |
| 20260507064653 | 42 | 71 | 1.0 | 6.0 | 0.00 | 0.00 | 0.00 | 59 | 1016.6 |
| 20260507063055 | 42 | 86 | 1.0 | 4.0 | 0.00 | 0.00 | 0.00 | 59 | 1016.6 |
| 20260507061651 | 41 | 75 | 0.0 | 5.0 | 0.00 | 0.00 | 0.00 | 57 | 1016.4 |
| 20260507060052 | 41 | 94 | 0.0 | 3.0 | 0.00 | 0.00 | 0.00 | 58 | 1016.3 |
| 20260507054652 | 41 | 42 | 0.0 | 3.0 | 0.00 | 0.00 | 0.00 | 58 | 1016.2 |
| 20260507053055 | 40 | 70 | 0.0 | 1.0 | 0.00 | 0.00 | 0.00 | 59 | 1016.1 |
| 20260507051652 | 40 | 61 | 0.0 | 1.0 | 0.00 | 0.00 | 0.00 | 58 | 1016.0 |
| 20260507050052 | 38 | 59 | 0.0 | 3.0 | 0.00 | 0.00 | 0.00 | 60 | 1016.0 |
| 20260507044653 | 37 | 355 | 2.0 | 4.0 | 0.00 | 0.00 | 0.00 | 59 | 1015.9 |
| 20260507043052 | 37 | 346 | 0.0 | 0.0 | 0.00 | 0.00 | 0.00 | 62 | 1015.8 |
| 20260507041652 | 36 | 346 | 0.0 | 0.0 | 0.00 | 0.00 | 0.00 | 65 | 1015.8 |
| 20260507034653 | 32 | 326 | 0.0 | 0.0 | 0.00 | 0.00 | 0.00 | 74 | 1015.5 |
| 20260507033056 | 31 | 326 | 0.0 | 2.0 | 0.00 | 0.00 | 0.00 | 77 | 1015.4 |
| 20260507031652 | 30 | 326 | 0.0 | 3.0 | 0.00 | 0.00 | 0.00 | 79 | 1015.3 |
| 20260507030056 | 30 | 317 | 0.0 | 0.0 | 0.00 | 0.00 | 0.00 | 76 | 1015.2 |
| 20260507024652 | 30 | 317 | 0.0 | 0.0 | 0.00 | 0.00 | 0.00 | 74 | 1015.1 |
| 20260507023053 | 32 | 317 | 0.0 | 0.0 | 0.00 | 0.00 | 0.00 | 72 | 1015.0 |
| 20260507021652 | 33 | 317 | 0.0 | 2.0 | 0.00 | 0.00 | 0.00 | 70 | 1014.9 |
| 20260507014653 | 33 | 317 | 0.0 | 2.0 | 0.00 | 0.00 | 0.00 | 66 | 1014.9 |
| 20260507013053 | 33 | 317 | 0.0 | 0.0 | 0.00 | 0.00 | 0.00 | 64 | 1014.7 |
| 20260507011653 | 33 | 317 | 0.0 | 1.0 | 0.00 | 0.00 | 0.00 | 65 | 1014.7 |
| 20260507010055 | 32 | 317 | 0.0 | 0.0 | 0.00 | 0.00 | 0.00 | 67 | 1014.5 |
| 20260507004652 | 33 | 317 | 0.0 | 0.0 | 0.00 | 0.00 | 0.00 | 65 | 1014.5 |
| 20260507003053 | 34 | 317 | 0.0 | 0.0 | 0.00 | 0.00 | 0.00 | 63 | 1014.3 |
| 20260507001655 | 34 | 317 | 0.0 | 0.0 | 0.00 | 0.00 | 0.00 | 61 | 1014.2 |
| 20260507000058 | 36 | 317 | 0.0 | 0.0 | 0.00 | 0.00 | 0.00 | 57 | 1014.1 |
| 20260506234653 | 37 | 317 | 0.0 | 2.0 | 0.00 | 0.00 | 0.00 | 54 | 1014.0 |
| 20260506233053 | 38 | 325 | 0.0 | 3.0 | 0.00 | 0.00 | 0.00 | 51 | 1014.0 |
| 20260506231653 | 39 | 360 | 2.0 | 5.0 | 0.00 | 0.00 | 0.00 | 49 | 1013.8 |
| 20260506230054 | 39 | 5 | 2.0 | 6.0 | 0.00 | 0.00 | 0.00 | 48 | 1013.7 |
| 20260506224653 | 38 | 342 | 2.0 | 5.0 | 0.00 | 0.00 | 0.00 | 48 | 1013.6 |
| 20260506223054 | 39 | 318 | 2.0 | 9.0 | 0.00 | 0.00 | 0.00 | 47 | 1013.6 |
| 20260506221653 | 39 | 346 | 1.0 | 5.0 | 0.00 | 0.00 | 0.00 | 48 | 1013.5 |
| 20260506214653 | 39 | 321 | 0.0 | 2.0 | 0.00 | 0.00 | 0.00 | 49 | 1013.3 |
| 20260506213101 | 39 | 344 | 1.0 | 4.0 | 0.00 | 0.00 | 0.00 | 52 | 1013.1 |
| 20260506211653 | 40 | 56 | 1.0 | 3.0 | 0.00 | 0.00 | 0.00 | 54 | 1013.0 |
| 20260506210107 | 41 | 350 | 0.0 | 3.0 | 0.00 | 0.00 | 0.00 | 52 | 1012.7 |
| 20260506204653 | 41 | 338 | 0.0 | 0.0 | 0.00 | 0.00 | 0.00 | 54 | 1012.6 |
| 20260506203140 | 40 | 337 | 0.0 | 0.0 | 0.00 | 0.00 | 0.00 | 53 | 1012.6 |
| 20260506201653 | 41 | 337 | 0.0 | 0.0 | 0.00 | 0.00 | 0.00 | 52 | 1012.5 |
| 20260506200053 | 42 | 337 | 0.0 | 0.0 | 0.00 | 0.00 | 0.00 | 50 | 1012.4 |
| 20260506194654 | 43 | 327 | 0.0 | 0.0 | 0.00 | 0.00 | 0.00 | 50 | 1012.3 |
| 20260506193053 | 44 | 327 | 0.0 | 0.0 | 0.00 | 0.00 | 0.00 | 48 | 1012.2 |
| 20260506191653 | 45 | 327 | 0.0 | 0.0 | 0.00 | 0.00 | 0.00 | 47 | 1012.0 |
| 20260506190056 | 46 | 327 | 0.0 | 0.0 | 0.00 | 0.00 | 0.00 | 43 | 1011.9 |
| 20260506184654 | 46 | 327 | 0.0 | 1.0 | 0.00 | 0.00 | 0.00 | 43 | 1011.9 |
| 20260506183058 | 47 | 317 | 0.0 | 0.0 | 0.00 | 0.00 | 0.00 | 46 | 1011.7 |
| 20260506181654 | 47 | 317 | 0.0 | 0.0 | 0.00 | 0.00 | 0.00 | 40 | 1011.5 |
| 20260506180055 | 48 | 317 | 0.0 | 1.0 | 0.00 | 0.00 | 0.00 | 40 | 1011.5 |
| 20260506174654 | 48 | 317 | 0.0 | 3.0 | 0.00 | 0.00 | 0.00 | 37 | 1011.4 |
| 20260506173057 | 49 | 313 | 1.0 | 5.0 | 0.00 | 0.00 | 0.00 | 33 | 1011.3 |
| 20260506171654 | 50 | 331 | 2.0 | 7.0 | 0.00 | 0.00 | 0.00 | 31 | 1011.3 |
| 20260506170054 | 50 | 295 | 3.0 | 6.0 | 0.00 | 0.00 | 0.00 | 32 | 1011.2 |
| 20260506164654 | 50 | 319 | 2.0 | 5.0 | 0.00 | 0.00 | 0.00 | 30 | 1011.2 |
| 20260506163114 | 50 | 274 | 3.0 | 7.0 | 0.00 | 0.00 | 0.00 | 29 | 1011.3 |
| 20260506161654 | 52 | 306 | 3.0 | 6.0 | 0.00 | 0.00 | 0.00 | 27 | 1011.1 |
| 20260506160054 | 51 | 327 | 1.0 | 3.0 | 0.00 | 0.00 | 0.00 | 27 | 1011.0 |
| 20260506154654 | 50 | 320 | 0.0 | 6.0 | 0.00 | 0.00 | 0.00 | 27 | 1011.1 |
| 20260506153112 | 51 | 295 | 3.0 | 13.0 | 0.00 | 0.00 | 0.00 | 27 | 1011.1 |
| 20260506151654 | 53 | 207 | 4.0 | 10.0 | 0.00 | 0.00 | 0.00 | 23 | 1011.2 |
| 20260506150054 | 52 | 267 | 0.0 | 2.0 | 0.00 | 0.00 | 0.00 | 26 | 1011.2 |
| 20260506144655 | 51 | 261 | 1.0 | 3.0 | 0.00 | 0.00 | 0.00 | 27 | 1011.2 |
| 20260506143054 | 53 | 282 | 2.0 | 5.0 | 0.00 | 0.00 | 0.00 | 26 | 1011.4 |
| 20260506141654 | 53 | 281 | 1.0 | 9.0 | 0.00 | 0.00 | 0.00 | 26 | 1011.5 |
| 20260506140056 | 53 | 321 | 4.0 | 7.0 | 0.00 | 0.00 | 0.00 | 26 | 1011.5 |
| 20260506134654 | 53 | 205 | 3.0 | 8.0 | 0.00 | 0.00 | 0.00 | 26 | 1011.5 |
| 20260506133055 | 51 | 275 | 1.0 | 7.0 | 0.00 | 0.00 | 0.00 | 29 | 1011.5 |
| 20260506131656 | 52 | 169 | 5.0 | 9.0 | 0.00 | 0.00 | 0.00 | 28 | 1011.6 |
| 20260506130056 | 53 | 277 | 3.0 | 8.0 | 0.00 | 0.00 | 0.00 | 28 | 1011.8 |
| 20260506124654 | 52 | 196 | 2.0 | 5.0 | 0.00 | 0.00 | 0.00 | 27 | 1011.8 |
| 20260506123110 | 50 | 259 | 3.0 | 9.0 | 0.00 | 0.00 | 0.00 | 27 | 1012.0 |
| 20260506121654 | 52 | 180 | 2.0 | 8.0 | 0.00 | 0.00 | 0.00 | 26 | 1012.1 |
| 20260506120054 | 52 | 236 | 1.0 | 6.0 | 0.00 | 0.00 | 0.00 | 27 | 1012.2 |
| 20260506114654 | 51 | 267 | 2.0 | 7.0 | 0.00 | 0.00 | 0.00 | 27 | 1012.2 |
| 20260506113055 | 50 | 300 | 3.0 | 8.0 | 0.00 | 0.00 | 0.00 | 26 | 1012.4 |
| 20260506111654 | 50 | 301 | 1.0 | 10.0 | 0.00 | 0.00 | 0.00 | 28 | 1012.4 |
| 20260506104654 | 49 | 169 | 2.0 | 6.0 | 0.00 | 0.00 | 0.00 | 30 | 1012.5 |
| 20260506103103 | 48 | 144 | 2.0 | 6.0 | 0.00 | 0.00 | 0.00 | 32 | 1012.6 |
| 20260506101654 | 47 | 312 | 4.0 | 7.0 | 0.00 | 0.00 | 0.00 | 31 | 1012.6 |
| 20260506100058 | 48 | 292 | 1.0 | 7.0 | 0.00 | 0.00 | 0.00 | 31 | 1012.7 |
| 20260506094655 | 47 | 355 | 2.0 | 9.0 | 0.00 | 0.00 | 0.00 | 34 | 1012.8 |
| 20260506093059 | 46 | 42 | 0.0 | 8.0 | 0.00 | 0.00 | 0.00 | 39 | 1012.8 |
| 20260506091658 | 45 | 32 | 0.0 | 7.0 | 0.00 | 0.00 | 0.00 | 40 | 1012.9 |
| 20260506090109 | 45 | 128 | 2.0 | 7.0 | 0.00 | 0.00 | 0.00 | 42 | 1013.0 |
| 20260506084655 | 45 | 90 | 2.0 | 6.0 | 0.00 | 0.00 | 0.00 | 45 | 1012.9 |
| 20260506083055 | 45 | 96 | 1.0 | 4.0 | 0.00 | 0.00 | 0.00 | 43 | 1013.1 |
| 20260506081656 | 44 | 111 | 1.0 | 7.0 | 0.00 | 0.00 | 0.00 | 48 | 1013.1 |